#timestamp,LO_Frequency,Hit,StdDev 
1507510815.1,286047007.1,Y
1507510835.9,286047005.6,P
1507510855.7,286047004.5,N
1507510875.5,286047004.0,N
1507510895.4,286046998.1,N
1507510915.2,286046996.5,N
1507510935.0,286046996.9,N
1507510935.9,286046996.9,N
1507510955.8,286046997.7,N
1507510975.6,286046997.9,N
1507510995.4,286046996.5,N
1507511015.2,286046997.2,N
1507511035.1,286046993.9,N
1507511036.0,286046993.9,N
1507511055.8,286046996.3,N
1507511075.6,286046994.9,N
1507511095.5,286046999.4,N
1507511115.3,286046998.2,N
1507511135.1,286047000.9,N
1507511155.9,286047003.7,N
1507511175.7,286047001.4,N
1507511195.5,286047003.9,N
1507511215.4,286047003.0,N
1507511235.2,286047004.2,N
1507511255.0,286047005.2,N
1507511255.9,286047005.2,N
1507511275.8,286047007.4,N
1507511295.6,286047003.5,N
1507511315.4,286047002.7,N
1507511335.2,286046999.8,N
1507511355.1,286047000.6,N
1507511356.0,286047000.6,N
1507511375.8,286046996.6,N
1507511395.6,286047001.2,N
1507511415.5,286046997.8,N
1507511435.3,286046994.9,N
1507511455.1,286046993.5,N
1507511475.9,286046992.6,N
1507511495.7,286046992.6,N
1507511515.5,286046991.1,N
1507511535.4,286046990.8,N
1507511555.2,286046985.7,Y
1507511575.0,286046987.1,P
1507511575.9,286046987.1,N
1507511595.8,286046985.6,N
1507511615.6,286046986.5,N
1507511635.4,286046988.4,N
1507511655.3,286046984.2,Y
1507511675.1,286046996.7,P
1507511676.0,286046996.7,N
1507511695.8,286046997.8,N
1507511715.7,286046997.8,N
1507511735.5,286046997.5,N
1507511755.3,286046996.8,N
1507511775.2,286046996.9,N
1507511795.9,286046996.1,N
1507511815.7,286046996.3,N
1507511835.6,286046996.3,N
1507511855.4,286046999.5,N
1507511875.2,286047000.8,N
1507511895.0,286047001.0,N
1507511895.9,286047001.0,N
1507511915.8,286046999.3,N
1507511935.6,286047000.9,N
1507511955.4,286046998.2,N
1507511975.3,286046998.9,N
1507511995.1,286046996.7,N
1507512015.8,286046998.3,N
1507512035.7,286047000.9,N
1507512055.5,286047001.1,N
1507512075.3,286046998.2,N
1507512095.2,286046998.1,N
1507512115.9,286046998.6,N
1507512135.7,286046998.1,N
1507512155.6,286047000.4,N
1507512175.4,286047000.5,N
1507512195.2,286046997.0,N
1507512215.0,286046995.8,N
1507512215.9,286046995.8,N
1507512235.8,286046996.4,N
1507512255.6,286046994.1,Y
1507512275.4,286046997.3,P
1507512295.3,286046997.0,P
1507512315.1,286046996.3,P
1507512335.8,286046995.0,Y
1507512355.7,286046997.3,P
1507512375.5,286047000.8,P
1507512395.3,286047000.9,N
1507512415.2,286046998.8,N
1507512435.9,286046999.2,N
1507512455.7,286047000.0,N
1507512475.6,286047003.9,N
1507512495.4,286047005.2,N
1507512515.2,286047004.2,N
1507512535.1,286047001.9,N
1507512536.0,286047001.9,N
1507512555.8,286047001.5,N
1507512575.6,286047005.3,N
1507512595.5,286047004.6,N
1507512615.3,286047005.6,N
1507512635.1,286047004.6,N
1507512655.8,286047004.5,N
1507512675.7,286047005.5,N
1507512695.5,286047005.9,N
1507512715.3,286047005.1,N
1507512735.2,286047004.8,N
1507512755.9,286047001.8,N
1507512775.7,286046999.4,N
1507512795.6,286047000.2,N
1507512815.4,286047004.4,N
1507512835.2,286047007.9,N
1507512855.1,286047013.6,Y
1507512856.0,286047013.6,P
1507512875.8,286047011.4,N
1507512895.6,286047013.1,N
1507512915.5,286047015.0,Y
1507512935.3,286047004.9,P
1507512955.1,286047006.7,N
1507512975.9,286047005.1,N
1507512995.7,286047003.5,N
1507513015.5,286047003.7,N
1507513035.4,286047006.3,N
1507513055.2,286047009.1,Y
1507513075.0,286047000.9,P
1507513075.9,286047000.9,N
1507513095.8,286046998.9,N
1507513115.6,286047000.3,N
1507513135.4,286046998.4,N
1507513155.3,286046998.2,N
1507513175.1,286046995.3,N
1507513176.0,286046995.3,N
1507513195.8,286046995.3,N
1507513215.7,286046996.1,N
1507513235.5,286046993.8,N
1507513255.3,286046992.5,N
1507513275.1,286046995.8,N
1507513295.9,286046997.7,N
1507513315.7,286046996.4,N
1507513335.5,286046991.9,N
1507513355.4,286046990.0,N
1507513375.2,286046989.9,N
1507513395.0,286046991.5,N
1507513395.9,286046991.5,N
1507513415.8,286046991.2,N
1507513435.6,286046988.9,N
1507513455.4,286046984.2,Y
1507513475.3,286046989.9,P
1507513495.1,286046985.3,P
1507513496.0,286046985.3,P
1507513515.8,286046991.2,N
1507513535.7,286046990.5,N
1507513555.5,286046985.7,Y
1507513575.3,286046992.4,P
1507513595.2,286046993.0,P
1507513615.9,286046991.9,P
1507513635.7,286046990.9,Y
1507513655.6,286047001.2,P
1507513675.4,286047001.0,N
1507513695.2,286047000.1,N
1507513715.1,286047000.6,N
1507513716.0,286047000.6,N
1507513735.8,286047002.7,N
1507513755.6,286047002.9,N
1507513775.5,286047003.0,N
1507513795.3,286047001.6,N
1507513815.1,286047002.6,N
1507513835.8,286046999.9,N
1507513855.7,286047001.8,N
1507513875.5,286046998.1,N
1507513895.3,286046998.2,N
1507513915.2,286046998.5,N
1507513935.9,286047000.0,N
1507513955.7,286046996.7,N
1507513975.6,286046999.6,N
1507513995.4,286047000.4,N
1507514015.2,286047000.2,N
1507514035.1,286047004.4,N
1507514036.0,286047004.4,N
1507514055.8,286047003.7,N
1507514075.6,286047003.2,N
1507514095.5,286047006.5,N
1507514115.3,286047008.6,N
1507514135.1,286047008.6,N
1507514155.8,286047006.6,N
1507514175.7,286047007.4,N
1507514195.5,286047007.5,N
1507514215.3,286047008.2,N
1507514235.2,286047010.2,Y
1507514255.0,286047010.0,P
1507514255.9,286047010.0,N
1507514275.7,286047010.2,N
1507514295.6,286047010.8,Y
1507514315.4,286047005.9,P
1507514335.2,286047004.9,P
1507514355.1,286047004.5,P
1507514356.0,286047004.5,Y
1507514375.8,286047000.0,P
1507514395.7,286046995.2,N
